Location: Hurecourt
(47.9030°N, 6.0653°E)
Time: 04:22:36
(UTC+00:00)

Aureole 1 Rocket - Pass Details

Date: 14 July 2020
Orbit: 377 x 1380 km, 73.9° (Epoch: 06 August)

Event Time Altitude Azimuth Distance (km) Brightness Sun altitude
Exits shadow 02:25:54 15° 229° (SW) 1,784 4.8 -11.3°
Maximum altitude 02:29:40 50° 301° (WNW) 1,004 4.1 -10.9°
Drops below altitude 10° 02:35:44 10° 17° (NNE) 2,743 7.5 -10.3°
Sets 02:38:46 0° 22° (NNE) 3,866 8.7 -10.0°
